TimeEDT,TemperatureF,Dew PointF,Humidity,Sea Level PressureIn,VisibilityMPH,Wind Direction,Wind SpeedMPH,Gust SpeedMPH,PrecipitationIn,Events,Conditions,WindDirDegrees,DateUTC
12:00 AM,44.6,41.0,87,29.45,12.0,WNW,10.4,-,N/A,Rain,Light Rain,290,2012-11-01 04:00:00
1:00 AM,44.6,41.0,87,29.46,10.0,West,9.2,-,N/A,Rain,Light Rain,280,2012-11-01 05:00:00
2:00 AM,43,41,89,29.45,10,West,9.2,,,Rain,Light Rain,270,2012-11-01 06:00:00
2:00 AM,42.8,41.0,93,29.45,10.0,West,10.4,-,N/A,Rain,Light Rain,270,2012-11-01 06:00:00
3:00 AM,42.8,39.2,87,29.45,12.0,WNW,12.7,-,N/A,Rain,Light Rain,300,2012-11-01 07:00:00
4:00 AM,42.8,39.2,87,29.46,15.0,WNW,12.7,-,N/A,Rain,Light Rain,290,2012-11-01 08:00:00
4:30 AM,42.8,-9999,N/A,-9999,15.0,WNW,11.5,-,N/A,,Overcast,300,2012-11-01 08:30:00
5:00 AM,42.8,37.4,81,29.47,15.0,WNW,15.0,-,N/A,,Overcast,300,2012-11-01 09:00:00
5:37 AM,42.8,-9999,N/A,-9999,15.0,WNW,16.1,-,N/A,Rain,Light Rain Showers,300,2012-11-01 09:37:00
6:00 AM,42.8,37.4,81,29.48,15.0,NW,17.3,-,N/A,Rain,Light Rain Showers,310,2012-11-01 10:00:00
7:00 AM,42.8,37.4,81,29.49,12.0,WNW,12.7,-,N/A,Rain,Light Rain,300,2012-11-01 11:00:00
8:00 AM,42,37,77,29.50,12,WNW,11.5,,,Rain,Light Rain,290,2012-11-01 12:00:00
8:00 AM,41.0,37.4,87,29.50,12.0,WNW,12.7,-,N/A,Rain,Light Rain,290,2012-11-01 12:00:00
9:00 AM,42.8,37.4,81,29.52,12.0,WNW,13.8,19.6,N/A,Rain,Light Rain,300,2012-11-01 13:00:00
10:00 AM,42.8,37.4,81,29.52,15.0,WNW,13.8,19.6,N/A,Rain,Light Rain,300,2012-11-01 14:00:00
11:00 AM,42.8,39.2,87,29.53,15.0,WNW,9.2,-,N/A,Rain,Light Rain,300,2012-11-01 15:00:00
12:00 PM,42.8,37.4,81,29.54,15.0,WNW,11.5,-,N/A,Rain,Light Rain,300,2012-11-01 16:00:00
12:54 PM,44.6,-9999,N/A,-9999,15.0,West,13.8,-,N/A,,Overcast,270,2012-11-01 16:54:00
1:00 PM,44.6,37.4,76,29.53,15.0,West,15.0,-,N/A,,Overcast,280,2012-11-01 17:00:00
1:35 PM,44.6,-9999,N/A,-9999,15.0,West,12.7,18.4,N/A,Rain,Light Rain Showers,280,2012-11-01 17:35:00
2:00 PM,44,37,70,29.53,15,WNW,17.3,,,Rain,Light Rain Showers,290,2012-11-01 18:00:00
2:00 PM,44.6,37.4,76,29.53,15.0,WNW,15.0,24.2,N/A,Rain,Light Rain Showers,290,2012-11-01 18:00:00
3:00 PM,44.6,35.6,71,29.53,15.0,WNW,18.4,-,N/A,Rain,Light Rain Showers,300,2012-11-01 19:00:00
4:00 PM,42.8,35.6,76,29.55,15.0,WNW,16.1,23.0,N/A,Rain,Light Rain Showers,300,2012-11-01 20:00:00
5:00 PM,42.8,35.6,76,29.56,15.0,WNW,16.1,-,N/A,Rain,Light Rain Showers,290,2012-11-01 21:00:00
6:00 PM,42.8,35.6,76,29.58,15.0,WNW,15.0,-,N/A,Rain,Light Rain Showers,300,2012-11-01 22:00:00
7:00 PM,42.8,35.6,76,29.60,15.0,WNW,12.7,20.7,N/A,Rain,Light Rain Showers,300,2012-11-01 23:00:00
8:00 PM,41,36,74,29.62,12,WNW,12.7,,,Rain,Light Rain,290,2012-11-02 00:00:00
8:00 PM,41.0,35.6,81,29.62,12.0,WNW,13.8,-,N/A,Rain,Light Rain,290,2012-11-02 00:00:00
9:00 PM,41.0,35.6,81,29.62,12.0,WNW,10.4,-,N/A,Rain,Light Rain,290,2012-11-02 01:00:00
10:00 PM,41.0,33.8,76,29.63,15.0,NW,17.3,-,N/A,,Overcast,310,2012-11-02 02:00:00
11:00 PM,39.2,33.8,81,29.64,15.0,WNW,12.7,19.6,N/A,,Overcast,290,2012-11-02 03:00:00